This is the latest recevied weather packets stored in our database for station/object KE8WAY. If no packets are shown the sender has not sent any weather packets the latest 10 day(s).
| Time | Temp. | Humidity | Pressure | Rain* | Wind** | Luminosity | Snow |
|---|---|---|---|---|---|---|---|
| 1777809312 | 5° C | 70% | 1014.8 hPa | 0 mm | - | 112 W/m² | - |
| 1777809009 | 5° C | 67% | 1014.8 hPa | 0 mm | - | 95 W/m² | - |
| 1777808707 | 4.44° C | 70% | 1014.8 hPa | 0 mm | - | 64 W/m² | - |
| 1777808403 | 3.89° C | 71% | 1014.7 hPa | 0 mm | - | 58 W/m² | - |
| 1777808101 | 3.89° C | 72% | 1015.1 hPa | 0 mm | - | 52 W/m² | - |
| 1777807799 | 3.33° C | 74% | 1015 hPa | 0 mm | - | 48 W/m² | - |
| 1777807497 | 2.78° C | 75% | 1015 hPa | 0 mm | - | 43 W/m² | - |
| 1777807193 | 2.78° C | 76% | 1014.9 hPa | 0 mm | - | 39 W/m² | - |
| 1777806890 | 2.22° C | 76% | 1015 hPa | 0 mm | - | 35 W/m² | - |
| 1777806586 | 2.22° C | 76% | 1014.9 hPa | 0 mm | - | 30 W/m² | - |
| 1777806282 | 2.22° C | 76% | 1015.1 hPa | 0 mm | - | 26 W/m² | - |
| 1777805979 | 1.67° C | 78% | 1015 hPa | 0 mm | - | 22 W/m² | - |
| 1777805675 | 1.67° C | 76% | 1015 hPa | 0 mm | - | 18 W/m² | - |
| 1777805373 | 1.67° C | 77% | 1015 hPa | 0 mm | - | 15 W/m² | - |
| 1777805071 | 1.67° C | 77% | 1014.8 hPa | 0 mm | - | 11 W/m² | - |
| 1777804768 | 1.11° C | 78% | 1014.9 hPa | 0 mm | - | 8 W/m² | - |
| 1777804466 | 1.11° C | 78% | 1015 hPa | 0 mm | - | 5 W/m² | - |
| 1777804163 | 1.11° C | 80% | 1015 hPa | 0 mm | - | 3 W/m² | - |
| 1777803860 | 0.56° C | 80% | 1015.3 hPa | 0 mm | - | 1 W/m² | - |
| 1777803556 | 0.56° C | 80% | 1015.2 hPa | 0 mm | - | 0 W/m² | - |
| 1777803254 | 0.56° C | 80% | 1015 hPa | 0 mm | - | 0 W/m² | - |
| 1777802950 | 0.56° C | 80% | 1015.1 hPa | 0 mm | - | 0 W/m² | - |
| 1777802649 | 0.56° C | 80% | 1015.2 hPa | 0 mm | - | 0 W/m² | - |
| 1777802345 | 0.56° C | 81% | 1015.3 hPa | 0 mm | - | 0 W/m² | - |
| 1777802044 | 0.56° C | 80% | 1015.3 hPa | 0 mm | - | 0 W/m² | - |
* Rain latest hour (hover to see other rain measurements)
** Current wind speed in m/s (hover to see current wind gust speed)